When you browse on this site, cookies collect data to enhance your experience and personalize the content and advertising you see.
Visit our Privacy Policy to learn more. By continuing to use the site, you agree to this use of cookies and data.
  • In Österreich
  • Länderverzeichnis
  • Für 7 Tage
  • Wassertemperatur
  • Wetterkarte
  • News
  • Widgets
  • user-avatar
    Anmelden

    Stündliche Wetter Emiliano Zapata

    Heute, 17 November, Sonntag

    Zeit Temperatur Niederschläge Wind Luftdruck Luftfeuchtigkeit
    00:00 +11°C° 0 mm 0 m/S 565 mmHg 89%
    01:00 +10°C° 0 mm 0 m/S 565 mmHg 90%
    02:00 +10°C° 0 mm 0 m/S 564 mmHg 90%
    03:00 +10°C° 0 mm 0 m/S 564 mmHg 90%
    04:00 +10°C° 0 mm 0 m/S 564 mmHg 91%
    05:00 +10°C° 0 mm 0 m/S 564 mmHg 91%
    06:00 +11°C° 0 mm 0 m/S 565 mmHg 83%
    07:00 +14°C° 0 mm 1 m/S 566 mmHg 76%
    08:00 +15°C° 0 mm 1 m/S 567 mmHg 69%
    09:00 +18°C° 0 mm 1 m/S 568 mmHg 61%
    10:00 +18°C° 0 mm 2 m/S 568 mmHg 54%
    11:00 +20°C° 0 mm 2 m/S 569 mmHg 47%
    12:00 +20°C° 0 mm 3 m/S 568 mmHg 47%
    13:00 +20°C° 0 mm 3 m/S 567 mmHg 48%
    14:00 +20°C° 0 mm 4 m/S 567 mmHg 48%
    15:00 +18°C° 0.1 mm 3 m/S 566 mmHg 56%
    16:00 +17°C° 0.1 mm 3 m/S 566 mmHg 65%
    17:00 +14°C° 0.1 mm 3 m/S 565 mmHg 73%
    18:00 +15°C° 0.1 mm 2 m/S 566 mmHg 74%
    19:00 +14°C° 0.1 mm 2 m/S 566 mmHg 75%
    20:00 +14°C° 0.1 mm 1 m/S 567 mmHg 76%
    21:00 +13°C° 0 mm 1 m/S 566 mmHg 74%
    22:00 +13°C° 0 mm 1 m/S 566 mmHg 73%
    23:00 +13°C° 0 mm 1 m/S 566 mmHg 71%

    Morgen, 18 November, Montag

    Zeit Temperatur Niederschläge Wind Luftdruck Luftfeuchtigkeit
    00:00 +13°C° 0 mm 1 m/S 565 mmHg 71%
    01:00 +12°C° 0 mm 1 m/S 565 mmHg 72%
    02:00 +12°C° 0 mm 1 m/S 565 mmHg 72%
    03:00 +11°C° 0 mm 1 m/S 564 mmHg 72%
    04:00 +10°C° 0 mm 0 m/S 564 mmHg 73%
    05:00 +10°C° 0 mm 0 m/S 564 mmHg 73%
    06:00 +11°C° 0 mm 0 m/S 565 mmHg 67%
    07:00 +13°C° 0 mm 0 m/S 566 mmHg 61%
    08:00 +14°C° 0 mm 0 m/S 567 mmHg 55%
    09:00 +18°C° 0 mm 1 m/S 568 mmHg 52%
    10:00 +19°C° 0 mm 1 m/S 568 mmHg 48%
    11:00 +20°C° 0 mm 2 m/S 568 mmHg 45%
    12:00 +20°C° 0 mm 2 m/S 568 mmHg 45%
    13:00 +20°C° 0 mm 2 m/S 567 mmHg 45%
    14:00 +21°C° 0 mm 2 m/S 567 mmHg 44%
    15:00 +19°C° 0.1 mm 2 m/S 567 mmHg 53%
    16:00 +18°C° 0.1 mm 2 m/S 566 mmHg 62%
    17:00 +16°C° 0.1 mm 2 m/S 566 mmHg 71%
    18:00 +16°C° 0.2 mm 2 m/S 566 mmHg 74%
    19:00 +15°C° 0.2 mm 1 m/S 566 mmHg 77%
    20:00 +15°C° 0.2 mm 1 m/S 566 mmHg 80%
    21:00 +14°C° 0.1 mm 1 m/S 566 mmHg 80%
    22:00 +13°C° 0.1 mm 0 m/S 566 mmHg 80%
    23:00 +13°C° 0.1 mm 0 m/S 565 mmHg 81%

    übermorgen, 19 November, Dienstag

    Zeit Temperatur Niederschläge Wind Luftdruck Luftfeuchtigkeit
    00:00 +12°C° 0 mm 0 m/S 565 mmHg 81%
    01:00 +12°C° 0 mm 0 m/S 565 mmHg 82%
    02:00 +11°C° 0 mm 0 m/S 564 mmHg 83%
    03:00 +11°C° 0 mm 0 m/S 564 mmHg 84%
    04:00 +11°C° 0 mm 0 m/S 564 mmHg 85%
    05:00 +11°C° 0 mm 0 m/S 564 mmHg 85%
    06:00 +12°C° 0 mm 0 m/S 565 mmHg 80%
    07:00 +14°C° 0 mm 0 m/S 566 mmHg 74%
    08:00 +15°C° 0 mm 0 m/S 567 mmHg 68%
    09:00 +18°C° 0 mm 1 m/S 567 mmHg 62%
    10:00 +19°C° 0 mm 1 m/S 568 mmHg 55%
    11:00 +20°C° 0 mm 2 m/S 568 mmHg 49%
    12:00 +20°C° 0 mm 2 m/S 568 mmHg 49%
    13:00 +20°C° 0 mm 2 m/S 567 mmHg 49%
    14:00 +20°C° 0 mm 2 m/S 567 mmHg 50%
    15:00 +19°C° 0 mm 2 m/S 566 mmHg 56%
    16:00 +18°C° 0 mm 2 m/S 566 mmHg 63%
    17:00 +17°C° 0 mm 2 m/S 566 mmHg 69%
    18:00 +16°C° 0 mm 2 m/S 566 mmHg 74%
    19:00 +15°C° 0 mm 1 m/S 566 mmHg 79%
    20:00 +14°C° 0 mm 1 m/S 566 mmHg 84%
    21:00 +14°C° 0 mm 1 m/S 565 mmHg 85%
    22:00 +13°C° 0 mm 1 m/S 565 mmHg 86%
    23:00 +13°C° 0 mm 1 m/S 565 mmHg 86%

    20 November, Mittwoch

    Zeit Temperatur Niederschläge Wind Luftdruck Luftfeuchtigkeit
    00:00 +13°C° 0 mm 1 m/S 565 mmHg 87%
    01:00 +13°C° 0 mm 1 m/S 565 mmHg 88%
    02:00 +12°C° 0 mm 1 m/S 564 mmHg 89%
    03:00 +12°C° 0 mm 1 m/S 564 mmHg 89%
    04:00 +12°C° 0 mm 1 m/S 564 mmHg 89%
    05:00 +12°C° 0 mm 1 m/S 564 mmHg 90%
    06:00 +13°C° 0 mm 1 m/S 565 mmHg 84%
    07:00 +15°C° 0 mm 1 m/S 566 mmHg 78%
    08:00 +15°C° 0 mm 0 m/S 567 mmHg 72%
    09:00 +18°C° 0 mm 1 m/S 568 mmHg 64%
    10:00 +20°C° 0 mm 1 m/S 568 mmHg 56%
    11:00 +22°C° 0 mm 1 m/S 568 mmHg 48%
    12:00 +22°C° 0 mm 1 m/S 568 mmHg 45%
    13:00 +23°C° 0 mm 1 m/S 568 mmHg 42%
    14:00 +23°C° 0 mm 1 m/S 567 mmHg 39%
    15:00 +22°C° 0.1 mm 1 m/S 567 mmHg 47%
    16:00 +20°C° 0.1 mm 1 m/S 567 mmHg 55%
    17:00 +19°C° 0.1 mm 1 m/S 566 mmHg 62%
    18:00 +18°C° 0 mm 1 m/S 566 mmHg 67%
    19:00 +16°C° 0 mm 1 m/S 566 mmHg 71%
    20:00 +15°C° 0 mm 1 m/S 566 mmHg 75%
    21:00 +15°C° 0 mm 1 m/S 566 mmHg 76%
    22:00 +15°C° 0 mm 1 m/S 566 mmHg 76%
    23:00 +15°C° 0 mm 1 m/S 566 mmHg 76%

    21 November, Donnerstag

    Zeit Temperatur Niederschläge Wind Luftdruck Luftfeuchtigkeit
    00:00 +13°C° 0 mm 0 m/S 566 mmHg 77%
    01:00 +13°C° 0 mm 0 m/S 565 mmHg 78%
    02:00 +13°C° 0 mm 0 m/S 565 mmHg 79%
    03:00 +12°C° 0 mm 0 m/S 565 mmHg 80%
    04:00 +12°C° 0 mm 0 m/S 565 mmHg 82%
    05:00 +12°C° 0 mm 0 m/S 565 mmHg 83%
    06:00 +13°C° 0 mm 0 m/S 566 mmHg 78%
    07:00 +14°C° 0 mm 0 m/S 567 mmHg 73%
    08:00 +16°C° 0 mm 0 m/S 568 mmHg 67%
    09:00 +17°C° 0 mm 0 m/S 568 mmHg 60%
    10:00 +20°C° 0 mm 1 m/S 569 mmHg 52%
    11:00 +22°C° 0 mm 1 m/S 569 mmHg 44%
    12:00 +22°C° 0 mm 1 m/S 569 mmHg 42%
    13:00 +23°C° 0 mm 1 m/S 568 mmHg 39%
    14:00 +23°C° 0 mm 1 m/S 568 mmHg 37%
    15:00 +22°C° 0 mm 1 m/S 567 mmHg 44%
    16:00 +20°C° 0 mm 1 m/S 567 mmHg 52%
    17:00 +19°C° 0 mm 1 m/S 566 mmHg 59%
    18:00 +18°C° 0 mm 1 m/S 566 mmHg 63%
    19:00 +16°C° 0 mm 1 m/S 566 mmHg 67%
    20:00 +16°C° 0 mm 1 m/S 566 mmHg 71%
    21:00 +15°C° 0 mm 1 m/S 566 mmHg 73%
    22:00 +15°C° 0 mm 1 m/S 566 mmHg 75%
    23:00 +13°C° 0 mm 0 m/S 566 mmHg 77%

    22 November, Freitag

    Zeit Temperatur Niederschläge Wind Luftdruck Luftfeuchtigkeit
    00:00 +14°C° 0 mm 1 m/S 565 mmHg 80%
    01:00 +14°C° 0 mm 1 m/S 565 mmHg 83%
    02:00 +13°C° 0 mm 1 m/S 564 mmHg 86%
    03:00 +13°C° 0 mm 1 m/S 564 mmHg 87%
    04:00 +13°C° 0 mm 1 m/S 564 mmHg 88%
    05:00 +11°C° 0 mm 0 m/S 564 mmHg 89%
    06:00 +14°C° 0 mm 1 m/S 565 mmHg 82%
    07:00 +15°C° 0 mm 1 m/S 566 mmHg 75%
    08:00 +18°C° 0 mm 1 m/S 567 mmHg 69%
    09:00 +19°C° 0 mm 1 m/S 568 mmHg 62%
    10:00 +21°C° 0 mm 1 m/S 568 mmHg 56%
    11:00 +21°C° 0 mm 2 m/S 568 mmHg 50%
    12:00 +21°C° 0.1 mm 2 m/S 568 mmHg 49%
    13:00 +21°C° 0.1 mm 2 m/S 567 mmHg 48%
    14:00 +21°C° 0.1 mm 2 m/S 567 mmHg 47%
    15:00 +20°C° 0.4 mm 2 m/S 566 mmHg 54%
    16:00 +19°C° 0.4 mm 2 m/S 566 mmHg 62%
    17:00 +17°C° 0.4 mm 2 m/S 565 mmHg 69%
    18:00 +16°C° 0.4 mm 2 m/S 565 mmHg 72%
    19:00 +16°C° 0.4 mm 1 m/S 565 mmHg 75%
    20:00 +15°C° 0.4 mm 1 m/S 565 mmHg 78%
    21:00 +15°C° 0 mm 1 m/S 565 mmHg 78%
    22:00 +15°C° 0 mm 1 m/S 565 mmHg 78%
    23:00 +14°C° 0 mm 1 m/S 565 mmHg 78%
    Mehr zeigen